,,,PA_Meas_PMT16A,,PR_Meas_QMR101_102,,RH_Meas_QMH101,,SR_Meas_QMS101,,TA_Meas_QMH101,,GenWind,,GenWind,
date,time,status,PA,status,PR,status,RH,status,SR,status,TA,status,DirAvg,status,SpdAvg,
2009-04-22, 00:00:04,VALID,1003.45,VALID,0,VALID,92.8053,VALID,0,VALID,24.3636,VALID,357,VALID,0.420703,
2009-04-22, 00:01:04,VALID,1003.43,VALID,0,VALID,92.8969,VALID,0,VALID,24.3849,VALID,357,VALID,0.475,
2009-04-22, 00:02:04,VALID,1003.45,VALID,0,VALID,92.9579,VALID,0,VALID,24.3441,VALID,357,VALID,0.577734,
2009-04-22, 00:03:04,VALID,1003.45,VALID,0,VALID,93.0189,VALID,0,VALID,24.3441,VALID,356,VALID,0.509375,
2009-04-22, 00:04:04,VALID,1003.44,VALID,0,VALID,93.08,VALID,0.100563,VALID,24.3654,VALID,356,VALID,0.474219,
2009-04-22, 00:05:04,VALID,1003.45,VALID,0,VALID,93.0876,VALID,0,VALID,24.3441,VALID,356,VALID,0.500781,
2009-04-22, 00:06:04,VALID,1003.43,VALID,0,VALID,93.1257,VALID,0,VALID,24.3654,VALID,356,VALID,0.372656,
2009-04-22, 00:07:04,VALID,1003.44,VALID,0,VALID,93.1257,VALID,0,VALID,24.3654,VALID,356,VALID,0.379687,
2009-04-22, 00:08:04,VALID,1003.4,VALID,0,VALID,93.1486,VALID,0,VALID,24.3459,VALID,356,VALID,0.470313,
2009-04-22, 00:09:04,VALID,1003.38,VALID,0,VALID,93.1944,VALID,0,VALID,24.3459,VALID,356,VALID,0.00351562,
2009-04-22, 00:10:04,VALID,1003.34,VALID,0,VALID,93.1791,VALID,0.100563,VALID,24.3459,VALID,356,VALID,0.16875,
2009-04-22, 00:11:04,VALID,1003.34,VALID,0,VALID,93.2478,VALID,0,VALID,24.3459,VALID,356,VALID,0.381641,
2009-04-22, 00:12:04,VALID,1003.37,VALID,0,VALID,93.2859,VALID,0,VALID,24.3654,VALID,356,VALID,0.33125,
2009-04-22, 00:13:04,VALID,1003.36,VALID,0,VALID,93.2631,VALID,0,VALID,24.3654,VALID,356,VALID,0.496094,
2009-04-22, 00:14:04,VALID,1003.35,VALID,0,VALID,93.2707,VALID,0,VALID,24.4043,VALID,343,VALID,0.445313,
2009-04-22, 00:15:04,VALID,1003.34,VALID,0,VALID,93.1944,VALID,0,VALID,24.4043,VALID,343,VALID,0.446094,
2009-04-22, 00:16:04,VALID,1003.35,VALID,0,VALID,93.1486,VALID,0,VALID,24.4043,VALID,343,VALID,0.591016,
2009-04-22, 00:17:04,VALID,1003.32,VALID,0,VALID,93.1563,VALID,0,VALID,24.4043,VALID,343,VALID,0.282031,
2009-04-22, 00:18:04,VALID,1003.33,VALID,0,VALID,93.1639,VALID,0,VALID,24.4043,VALID,343,VALID,0.421094,
2009-04-22, 00:19:05,VALID,1003.31,VALID,0,VALID,93.1639,VALID,0,VALID,24.4043,VALID,343,VALID,0.324219,
2009-04-22, 00:20:05,VALID,1003.31,VALID,0,VALID,93.2173,VALID,0,VALID,24.4043,VALID,343,VALID,0.540234,
2009-04-22, 00:21:05,VALID,1003.29,VALID,0,VALID,93.2325,VALID,0,VALID,24.4043,VALID,343,VALID,0.519531,
2009-04-22, 00:22:05,VALID,1003.29,VALID,0,VALID,93.2325,VALID,0,VALID,24.3849,VALID,343,VALID,0.567578,
2009-04-22, 00:23:05,VALID,1003.27,VALID,0,VALID,93.2707,VALID,0,VALID,24.4043,VALID,343,VALID,0.577734,
2009-04-22, 00:24:05,VALID,1003.26,VALID,0,VALID,93.3012,VALID,0,VALID,24.4043,VALID,340,VALID,0.535937,
2009-04-22, 00:25:05,VALID,1003.25,VALID,0,VALID,93.2631,VALID,0,VALID,24.3849,VALID,340,VALID,0.329688,
2009-04-22, 00:26:05,VALID,1003.23,VALID,0,VALID,93.2554,VALID,0,VALID,24.4257,VALID,340,VALID,0.408203,
2009-04-22, 00:27:05,VALID,1003.22,VALID,0,VALID,93.2173,VALID,0,VALID,24.4238,VALID,340,VALID,0.249609,
2009-04-22, 00:28:05,VALID,1003.24,VALID,0,VALID,93.1791,VALID,0,VALID,24.4433,VALID,340,VALID,0.503516,
2009-04-22, 00:29:05,VALID,1003.26,VALID,0,VALID,93.1334,VALID,0,VALID,24.4841,VALID,340,VALID,0.357812,
2009-04-22, 00:30:05,VALID,1003.26,VALID,0,VALID,93.0723,VALID,0,VALID,24.4414,VALID,340,VALID,0.495703,
2009-04-22, 00:31:05,VALID,1003.28,VALID,0,VALID,93.0266,VALID,0,VALID,24.4822,VALID,356,VALID,0.550391,
2009-04-22, 00:32:05,VALID,1003.26,VALID,0,VALID,92.9426,VALID,0,VALID,24.5017,VALID,356,VALID,0.585547,
2009-04-22, 00:33:05,VALID,1003.28,VALID,0,VALID,92.8664,VALID,0,VALID,24.5212,VALID,356,VALID,0.450391,
2009-04-22, 00:34:05,VALID,1003.28,VALID,0,VALID,92.8282,VALID,0,VALID,24.5212,VALID,353,VALID,0.451172,
2009-04-22, 00:35:05,VALID,1003.26,VALID,0,VALID,92.7977,VALID,0.100563,VALID,24.5212,VALID,353,VALID,0.533984,
2009-04-22, 00:36:05,VALID,1003.28,VALID,0,VALID,92.813,VALID,0,VALID,24.5406,VALID,353,VALID,0.467578,
2009-04-22, 00:37:05,VALID,1003.25,VALID,0,VALID,92.8358,VALID,0,VALID,24.5406,VALID,353,VALID,0.461719,
2009-04-22, 00:38:05,VALID,1003.26,VALID,0,VALID,92.8587,VALID,0,VALID,24.5406,VALID,353,VALID,0.496484,
2009-04-22, 00:39:05,VALID,1003.28,VALID,0,VALID,92.874,VALID,0,VALID,24.4998,VALID,352,VALID,0.454297,
2009-04-22, 00:40:05,VALID,1003.31,VALID,0,VALID,92.8282,VALID,0,VALID,24.5406,VALID,352,VALID,0.291016,
2009-04-22, 00:41:05,VALID,1003.32,VALID,0,VALID,92.874,VALID,0,VALID,24.5601,VALID,331,VALID,0.254297,
2009-04-22, 00:42:05,VALID,1003.33,VALID,0,VALID,92.8892,VALID,0,VALID,24.5796,VALID,329,VALID,0.228125,
2009-04-22, 00:43:05,VALID,1003.31,VALID,0,VALID,92.8892,VALID,0,VALID,24.599,VALID,329,VALID,0.114844,
2009-04-22, 00:44:05,VALID,1003.3,VALID,0,VALID,92.8816,VALID,0,VALID,24.638,VALID,330,VALID,0.181641,
2009-04-22, 00:45:05,VALID,1003.32,VALID,0,VALID,92.8282,VALID,0,VALID,24.6361,VALID,330,VALID,0,
2009-04-22, 00:46:05,VALID,1003.32,VALID,0,VALID,92.7748,VALID,0,VALID,24.6769,VALID,329,VALID,0,
2009-04-22, 00:47:05,VALID,1003.3,VALID,0,VALID,92.7367,VALID,0,VALID,24.6964,VALID,309,VALID,0.471875,
2009-04-22, 00:48:05,VALID,1003.34,VALID,0,VALID,92.5154,VALID,0,VALID,24.7159,VALID,357,VALID,1.12344,
2009-04-22, 00:49:05,VALID,1003.36,VALID,0,VALID,92.2637,VALID,0,VALID,24.7743,VALID,302,VALID,0.958594,
2009-04-22, 00:50:05,VALID,1003.38,VALID,0,VALID,91.9738,VALID,0,VALID,24.8132,VALID,286,VALID,1.70664,
2009-04-22, 00:51:05,VALID,1003.44,VALID,0,VALID,91.9051,VALID,0,VALID,24.8522,VALID,265,VALID,0.325,
2009-04-22, 00:52:05,VALID,1003.48,VALID,0,VALID,91.249,VALID,0,VALID,24.8716,VALID,305,VALID,2.97578,
2009-04-22, 00:53:05,VALID,1003.55,VALID,0,VALID,90.8447,VALID,0,VALID,24.93,VALID,291,VALID,1.45742,
2009-04-22, 00:54:05,VALID,1003.53,VALID,0,VALID,90.6845,VALID,0,VALID,24.969,VALID,285,VALID,1.30938,
2009-04-22, 00:55:05,VALID,1003.54,VALID,0,VALID,90.7226,VALID,0,VALID,24.9495,VALID,299,VALID,0.928516,
2009-04-22, 00:56:05,VALID,1003.45,VALID,0,VALID,90.776,VALID,0,VALID,24.93,VALID,272,VALID,0.774609,
2009-04-22, 00:57:05,VALID,1003.43,VALID,0,VALID,90.1581,VALID,0,VALID,24.8327,VALID,293,VALID,1.80313,
2009-04-22, 00:58:05,VALID,1003.41,VALID,0,VALID,90.2268,VALID,0,VALID,24.7743,VALID,306,VALID,0.411719,
2009-04-22, 00:59:05,VALID,1003.32,VALID,0,VALID,89.6393,VALID,0,VALID,24.6769,VALID,72,VALID,0.473828,
2009-04-22, 01:00:05,VALID,1003.3,VALID,0,VALID,90.1886,VALID,0,VALID,24.6769,VALID,6,VALID,0.252734,
2009-04-22, 01:01:05,VALID,1003.36,VALID,0,VALID,90.0666,VALID,0,VALID,24.6185,VALID,4,VALID,0.404297,
2009-04-22, 01:02:05,VALID,1003.42,VALID,0,VALID,90.2039,VALID,0,VALID,24.638,VALID,282,VALID,0.165625,
2009-04-22, 01:03:05,VALID,1003.38,VALID,0.5,VALID,90.2268,VALID,0,VALID,24.5796,VALID,286,VALID,0.230078,
2009-04-22, 01:04:05,VALID,1003.32,VALID,0,VALID,90.2268,VALID,0,VALID,24.5388,VALID,279,VALID,0.194922,
2009-04-22, 01:05:05,VALID,1003.29,VALID,0,VALID,90.3336,VALID,0,VALID,24.5212,VALID,279,VALID,0.0808594,
2009-04-22, 01:06:05,VALID,1003.29,VALID,0,VALID,90.4709,VALID,0,VALID,24.4609,VALID,279,VALID,0.105078,
2009-04-22, 01:07:05,VALID,1003.34,VALID,0,VALID,90.5319,VALID,0,VALID,24.4628,VALID,279,VALID,0.172656,
2009-04-22, 01:08:05,VALID,1003.33,VALID,0,VALID,90.4251,VALID,0,VALID,24.4043,VALID,280,VALID,0.119531,
2009-04-22, 01:09:05,VALID,1003.32,VALID,0,VALID,90.4175,VALID,0,VALID,24.3636,VALID,280,VALID,0.00585938,
2009-04-22, 01:10:05,VALID,1003.3,VALID,0,VALID,90.5167,VALID,0,VALID,24.3654,VALID,288,VALID,0.262109,
2009-04-22, 01:11:05,VALID,1003.26,VALID,0,VALID,90.5167,VALID,0,VALID,24.3265,VALID,315,VALID,0.257031,
2009-04-22, 01:12:05,VALID,1003.28,VALID,0,VALID,90.2497,VALID,0,VALID,24.2681,VALID,328,VALID,0.210938,
2009-04-22, 01:13:05,VALID,1003.22,VALID,0,VALID,90.2497,VALID,0,VALID,24.2486,VALID,328,VALID,0.0460938,
2009-04-22, 01:14:05,VALID,1003.19,VALID,0,VALID,90.4556,VALID,0,VALID,24.2486,VALID,328,VALID,0.0402344,
2009-04-22, 01:15:05,VALID,1003.14,VALID,0,VALID,90.5701,VALID,0,VALID,24.1884,VALID,328,VALID,0.00585938,
2009-04-22, 01:16:05,VALID,1003.17,VALID,0,VALID,90.7913,VALID,0,VALID,24.1902,VALID,328,VALID,0,
2009-04-22, 01:17:05,VALID,1003.16,VALID,0,VALID,90.9134,VALID,0,VALID,24.13,VALID,328,VALID,0,
2009-04-22, 01:18:05,VALID,1003.13,VALID,0,VALID,91.2033,VALID,0,VALID,24.1318,VALID,328,VALID,0,
2009-04-22, 01:19:05,VALID,1003.11,VALID,0,VALID,91.394,VALID,0,VALID,24.1123,VALID,328,VALID,0,
2009-04-22, 01:20:05,VALID,1003.09,VALID,0,VALID,91.6076,VALID,0,VALID,24.0716,VALID,328,VALID,0,
2009-04-22, 01:21:05,VALID,1003.1,VALID,0,VALID,91.7449,VALID,0,VALID,24.0734,VALID,328,VALID,0,
2009-04-22, 01:22:05,VALID,1003.15,VALID,0,VALID,91.9051,VALID,0,VALID,24.0734,VALID,328,VALID,0,
2009-04-22, 01:23:05,VALID,1003.12,VALID,0,VALID,91.9356,VALID,0,VALID,24.0345,VALID,328,VALID,0.0148437,
2009-04-22, 01:24:05,VALID,1003.16,VALID,0,VALID,92.0348,VALID,0,VALID,24.015,VALID,298,VALID,0.698047,
2009-04-22, 01:25:05,VALID,1003.11,VALID,0,VALID,92.1035,VALID,0,VALID,24.015,VALID,297,VALID,0,
2009-04-22, 01:26:05,VALID,1003.13,VALID,0,VALID,92.1264,VALID,0,VALID,23.9937,VALID,298,VALID,0.0957031,
2009-04-22, 01:27:05,VALID,1003.11,VALID,0,VALID,91.8822,VALID,0,VALID,23.9566,VALID,297,VALID,0.190234,
2009-04-22, 01:28:05,VALID,1003.07,VALID,0,VALID,92.0501,VALID,0,VALID,23.9566,VALID,316,VALID,0.433984,
2009-04-22, 01:29:05,VALID,1003.08,VALID,0,VALID,92.0806,VALID,0,VALID,23.9371,VALID,344,VALID,0.586328,
2009-04-22, 01:30:05,VALID,1003.05,VALID,0,VALID,92.2179,VALID,0,VALID,23.9177,VALID,360,VALID,0.603906,
2009-04-22, 01:31:05,VALID,1003.1,VALID,0,VALID,92.2713,VALID,0,VALID,23.8575,VALID,360,VALID,0.520312,
2009-04-22, 01:32:05,VALID,1003.07,VALID,0,VALID,92.3095,VALID,0,VALID,23.8398,VALID,357,VALID,0.662109,
2009-04-22, 01:33:05,VALID,1003.08,VALID,0,VALID,92.3323,VALID,0,VALID,23.7796,VALID,349,VALID,0.766797,
2009-04-22, 01:34:05,VALID,1003.08,VALID,0,VALID,92.3629,VALID,0,VALID,23.7814,VALID,350,VALID,0.680078,
2009-04-22, 01:35:05,VALID,1003.08,VALID,0,VALID,92.4239,VALID,0,VALID,23.7407,VALID,350,VALID,0.544141,
2009-04-22, 01:36:05,VALID,1003.12,VALID,0,VALID,92.4773,VALID,0,VALID,23.723,VALID,350,VALID,0.567187,
2009-04-22, 01:37:05,VALID,1003.11,VALID,0,VALID,92.5536,VALID,0,VALID,23.7017,VALID,351,VALID,0.663281,
2009-04-22, 01:38:05,VALID,1003.13,VALID,0,VALID,92.607,VALID,0,VALID,23.6823,VALID,351,VALID,0.583984,
2009-04-22, 01:39:05,VALID,1003.12,VALID,0,VALID,92.7062,VALID,0,VALID,23.723,VALID,351,VALID,0.546875,
2009-04-22, 01:40:05,VALID,1003.09,VALID,0,VALID,92.8358,VALID,0,VALID,23.7035,VALID,351,VALID,0.6625,
2009-04-22, 01:41:05,VALID,1003.06,VALID,0,VALID,92.8206,VALID,0,VALID,23.6646,VALID,351,VALID,0.461328,
2009-04-22, 01:42:05,VALID,1003.05,VALID,0,VALID,92.9426,VALID,0,VALID,23.6646,VALID,351,VALID,0.208594,
2009-04-22, 01:43:05,VALID,1003.01,VALID,0,VALID,92.9655,VALID,0,VALID,23.6239,VALID,351,VALID,0.156641,
2009-04-22, 01:44:05,VALID,1002.99,VALID,0,VALID,93.0266,VALID,0,VALID,23.6257,VALID,351,VALID,0.214062,
2009-04-22, 01:45:05,VALID,1002.97,VALID,0,VALID,93.1105,VALID,0,VALID,23.6257,VALID,351,VALID,0.293359,
2009-04-22, 01:46:05,VALID,1002.97,VALID,0,VALID,93.1639,VALID,0,VALID,23.585,VALID,351,VALID,0.301172,
2009-04-22, 01:47:05,VALID,1002.97,VALID,0,VALID,93.1791,VALID,0,VALID,23.5673,VALID,351,VALID,0.316016,
2009-04-22, 01:48:05,VALID,1002.97,VALID,0,VALID,93.2173,VALID,0,VALID,23.546,VALID,351,VALID,0.220313,
2009-04-22, 01:49:05,VALID,1002.96,VALID,0,VALID,93.2631,VALID,0,VALID,23.5478,VALID,351,VALID,0.204297,
2009-04-22, 01:50:05,VALID,1002.95,VALID,0,VALID,93.2097,VALID,0,VALID,23.5266,VALID,355,VALID,0.394922,
2009-04-22, 01:51:05,VALID,1002.95,VALID,0,VALID,93.2478,VALID,0,VALID,23.5284,VALID,354,VALID,0.605469,
2009-04-22, 01:52:05,VALID,1002.97,VALID,0,VALID,93.2707,VALID,0,VALID,23.546,VALID,357,VALID,0.923047,
2009-04-22, 01:53:05,VALID,1002.96,VALID,0,VALID,93.408,VALID,0,VALID,23.585,VALID,358,VALID,0.742578,
2009-04-22, 01:54:05,VALID,1002.97,VALID,0,VALID,93.408,VALID,0,VALID,23.6026,VALID,357,VALID,0.431641,
2009-04-22, 01:55:05,VALID,1002.95,VALID,0,VALID,93.4385,VALID,0,VALID,23.6628,VALID,346,VALID,0.668359,
2009-04-22, 01:56:05,VALID,1002.97,VALID,0,VALID,93.4462,VALID,0,VALID,23.7212,VALID,339,VALID,0.213672,
2009-04-22, 01:57:05,VALID,1002.94,VALID,0,VALID,93.4767,VALID,0.100563,VALID,23.7194,VALID,323,VALID,0.322266,
2009-04-22, 01:58:05,VALID,1002.89,VALID,0,VALID,93.5224,VALID,0,VALID,23.7796,VALID,347,VALID,0.509375,
2009-04-22, 01:59:05,VALID,1002.9,VALID,0,VALID,93.5758,VALID,0,VALID,23.8185,VALID,344,VALID,0.173438,
2009-04-22, 02:00:05,VALID,1002.91,VALID,0,VALID,93.6369,VALID,0,VALID,23.8575,VALID,358,VALID,0.633594,
2009-04-22, 02:01:05,VALID,1002.91,VALID,0,VALID,93.6216,VALID,0.100563,VALID,23.9177,VALID,3,VALID,0.0191406,
2009-04-22, 02:02:05,VALID,1002.88,VALID,0,VALID,93.6369,VALID,0,VALID,23.9353,VALID,1,VALID,0,
2009-04-22, 02:03:05,VALID,1002.87,VALID,0,VALID,93.6521,VALID,0.100563,VALID,23.9548,VALID,354,VALID,0.168359,
2009-04-22, 02:04:05,VALID,1002.89,VALID,0,VALID,93.6292,VALID,0,VALID,23.9742,VALID,357,VALID,0.561719,
2009-04-22, 02:05:05,VALID,1002.88,VALID,0,VALID,93.6292,VALID,0,VALID,23.9955,VALID,348,VALID,0.469531,
2009-04-22, 02:06:05,VALID,1002.89,VALID,0,VALID,93.614,VALID,0,VALID,24.0539,VALID,348,VALID,0,
2009-04-22, 02:07:05,VALID,1002.86,VALID,0,VALID,93.614,VALID,0.100563,VALID,24.0521,VALID,348,VALID,0,
2009-04-22, 02:08:05,VALID,1002.85,VALID,0,VALID,93.6216,VALID,0,VALID,24.0697,VALID,350,VALID,0.552734,
2009-04-22, 02:09:05,VALID,1002.82,VALID,0,VALID,93.6445,VALID,0,VALID,24.0716,VALID,348,VALID,0.330469,
2009-04-22, 02:10:05,VALID,1002.84,VALID,0,VALID,93.6521,VALID,0,VALID,24.1105,VALID,352,VALID,0.612891,
2009-04-22, 02:11:05,VALID,1002.83,VALID,0,VALID,93.6445,VALID,0,VALID,24.13,VALID,355,VALID,0.388281,
2009-04-22, 02:12:05,VALID,1002.81,VALID,0,VALID,93.6598,VALID,0,VALID,24.13,VALID,346,VALID,0.509766,
2009-04-22, 02:13:05,VALID,1002.8,VALID,0,VALID,93.6445,VALID,0.100563,VALID,24.1494,VALID,346,VALID,0,
2009-04-22, 02:14:05,VALID,1002.77,VALID,0,VALID,93.6445,VALID,0,VALID,24.1689,VALID,346,VALID,0.127344,
2009-04-22, 02:15:05,VALID,1002.76,VALID,0,VALID,93.6292,VALID,0.100563,VALID,24.2097,VALID,346,VALID,0.0421875,
2009-04-22, 02:16:05,VALID,1002.75,VALID,0,VALID,93.6521,VALID,0,VALID,24.2291,VALID,346,VALID,0.232422,
2009-04-22, 02:17:05,VALID,1002.76,VALID,0,VALID,93.6216,VALID,0.100563,VALID,24.2291,VALID,346,VALID,0,
2009-04-22, 02:18:05,VALID,1002.75,VALID,0,VALID,93.6216,VALID,0,VALID,24.2078,VALID,346,VALID,0,
2009-04-22, 02:19:05,VALID,1002.77,VALID,0,VALID,93.6216,VALID,0,VALID,24.1865,VALID,346,VALID,0,
2009-04-22, 02:20:05,VALID,1002.76,VALID,0,VALID,93.6292,VALID,0,VALID,24.2273,VALID,346,VALID,0,
2009-04-22, 02:21:05,VALID,1002.76,VALID,0,VALID,93.5453,VALID,0,VALID,24.2273,VALID,346,VALID,0,
2009-04-22, 02:22:05,VALID,1002.74,VALID,0,VALID,93.4919,VALID,0,VALID,24.2078,VALID,346,VALID,0,
2009-04-22, 02:23:05,VALID,1002.76,VALID,0,VALID,93.4919,VALID,0.100563,VALID,24.206,VALID,346,VALID,0,
2009-04-22, 02:24:05,VALID,1002.74,VALID,0,VALID,93.469,VALID,0.100563,VALID,24.1884,VALID,346,VALID,0,
2009-04-22, 02:25:05,VALID,1002.75,VALID,0,VALID,93.4538,VALID,0.100563,VALID,24.2097,VALID,346,VALID,0,
2009-04-22, 02:26:05,VALID,1002.75,VALID,0,VALID,93.4462,VALID,0,VALID,24.1494,VALID,346,VALID,0,
2009-04-22, 02:27:05,VALID,1002.71,VALID,0,VALID,93.4767,VALID,0.100563,VALID,24.1494,VALID,346,VALID,0,
2009-04-22, 02:28:05,VALID,1002.67,VALID,0,VALID,93.5224,VALID,0.100563,VALID,24.1105,VALID,346,VALID,0,
2009-04-22, 02:29:05,VALID,1002.66,VALID,0,VALID,93.5453,VALID,0,VALID,24.091,VALID,346,VALID,0,
2009-04-22, 02:30:05,VALID,1002.68,VALID,0,VALID,93.5682,VALID,0,VALID,24.0716,VALID,346,VALID,0,
2009-04-22, 02:31:05,VALID,1002.69,VALID,0,VALID,93.5682,VALID,0,VALID,24.0308,VALID,346,VALID,0,
2009-04-22, 02:32:05,VALID,1002.74,VALID,0,VALID,93.5758,VALID,0.100563,VALID,24.0326,VALID,37,VALID,0.377344,
2009-04-22, 02:33:05,VALID,1002.73,VALID,0,VALID,93.675,VALID,0.100563,VALID,24.0132,VALID,331,VALID,0.54375,
2009-04-22, 02:34:05,VALID,1002.72,VALID,0,VALID,93.6903,VALID,0.100563,VALID,23.9742,VALID,331,VALID,0.283984,
2009-04-22, 02:35:05,VALID,1002.69,VALID,0,VALID,93.7132,VALID,0.100563,VALID,23.9955,VALID,331,VALID,0.425781,
2009-04-22, 02:36:05,VALID,1002.69,VALID,0,VALID,93.7513,VALID,0.100563,VALID,23.9353,VALID,331,VALID,0.251563,
2009-04-22, 02:37:05,VALID,1002.7,VALID,0,VALID,93.7895,VALID,0.100563,VALID,23.9159,VALID,331,VALID,0.400391,
2009-04-22, 02:38:05,VALID,1002.72,VALID,0,VALID,93.8429,VALID,0,VALID,23.9371,VALID,332,VALID,0.41875,
2009-04-22, 02:39:05,VALID,1002.73,VALID,0,VALID,93.9573,VALID,0.100563,VALID,23.9159,VALID,333,VALID,0.336719,
2009-04-22, 02:40:05,VALID,1002.75,VALID,0,VALID,94.0031,VALID,0,VALID,23.8946,VALID,333,VALID,0.147656,
2009-04-22, 02:41:05,VALID,1002.7,VALID,0,VALID,94.0641,VALID,0,VALID,23.9177,VALID,333,VALID,0.00117188,
2009-04-22, 02:42:05,VALID,1002.73,VALID,0,VALID,94.1022,VALID,0,VALID,23.9584,VALID,333,VALID,0,
2009-04-22, 02:43:05,VALID,1002.69,VALID,0,VALID,94.1633,VALID,0,VALID,23.9761,VALID,333,VALID,0.000390625,
2009-04-22, 02:44:05,VALID,1002.69,VALID,0,VALID,94.1862,VALID,0,VALID,23.9761,VALID,333,VALID,0,
2009-04-22, 02:45:05,VALID,1002.67,VALID,0,VALID,94.2319,VALID,0,VALID,23.9955,VALID,333,VALID,0.170703,
2009-04-22, 02:46:05,VALID,1002.67,VALID,0,VALID,94.2777,VALID,0,VALID,24.015,VALID,333,VALID,0,
2009-04-22, 02:47:05,VALID,1002.66,VALID,0,VALID,94.3158,VALID,0,VALID,24.0132,VALID,346,VALID,0.439844,
2009-04-22, 02:48:05,VALID,1002.66,VALID,0,VALID,94.3311,VALID,0,VALID,24.0539,VALID,346,VALID,0,
2009-04-22, 02:49:05,VALID,1002.65,VALID,0,VALID,94.3082,VALID,0,VALID,24.0752,VALID,346,VALID,0,
2009-04-22, 02:50:05,VALID,1002.66,VALID,0,VALID,94.3387,VALID,0,VALID,24.0929,VALID,332,VALID,0,
2009-04-22, 02:51:05,VALID,1002.67,VALID,0,VALID,94.354,VALID,0,VALID,24.091,VALID,344,VALID,0.299609,
2009-04-22, 02:52:05,VALID,1002.67,VALID,0,VALID,94.3387,VALID,0,VALID,24.1123,VALID,342,VALID,0.187109,
2009-04-22, 02:53:05,VALID,1002.68,VALID,0,VALID,94.3464,VALID,0,VALID,24.1531,VALID,324,VALID,0.428125,
2009-04-22, 02:54:05,VALID,1002.69,VALID,0,VALID,94.354,VALID,0,VALID,24.1318,VALID,315,VALID,0.542969,
2009-04-22, 02:55:05,VALID,1002.68,VALID,0,VALID,94.3464,VALID,0,VALID,24.1513,VALID,309,VALID,0.153906,
2009-04-22, 02:56:05,VALID,1002.68,VALID,0,VALID,94.3082,VALID,0,VALID,24.1494,VALID,309,VALID,0.236328,
2009-04-22, 02:57:05,VALID,1002.66,VALID,0,VALID,94.2701,VALID,0,VALID,24.1513,VALID,309,VALID,0.127734,
2009-04-22, 02:58:05,VALID,1002.66,VALID,0,VALID,94.2167,VALID,0.100563,VALID,24.1494,VALID,309,VALID,0.25625,
2009-04-22, 02:59:05,VALID,1002.65,VALID,0,VALID,94.2472,VALID,0,VALID,24.13,VALID,309,VALID,0.230859,
2009-04-22, 03:00:04,VALID,1002.65,VALID,0,VALID,94.2167,VALID,0.100563,VALID,24.1281,VALID,309,VALID,0.176953,
2009-04-22, 03:01:04,VALID,1002.67,VALID,0,VALID,94.2014,VALID,0,VALID,24.13,VALID,309,VALID,0.119141,
2009-04-22, 03:02:04,VALID,1002.68,VALID,0,VALID,94.1709,VALID,0,VALID,24.1318,VALID,309,VALID,0,
2009-04-22, 03:03:04,VALID,1002.68,VALID,0,VALID,94.1556,VALID,0,VALID,24.1105,VALID,309,VALID,0,
2009-04-22, 03:04:04,VALID,1002.66,VALID,0,VALID,94.1709,VALID,0,VALID,24.1105,VALID,309,VALID,0,
2009-04-22, 03:05:04,VALID,1002.65,VALID,0,VALID,94.2167,VALID,0.100563,VALID,24.13,VALID,309,VALID,0.269922,
2009-04-22, 03:06:04,VALID,1002.68,VALID,0,VALID,94.2014,VALID,0,VALID,24.13,VALID,309,VALID,0.372656,
2009-04-22, 03:07:04,VALID,1002.68,VALID,0,VALID,94.209,VALID,0,VALID,24.091,VALID,309,VALID,0.193359,
2009-04-22, 03:08:04,VALID,1002.69,VALID,0,VALID,94.2472,VALID,0,VALID,24.1105,VALID,309,VALID,0.0816406,
2009-04-22, 03:09:04,VALID,1002.74,VALID,0,VALID,94.2548,VALID,0,VALID,24.1123,VALID,309,VALID,0.0015625,
2009-04-22, 03:10:04,VALID,1002.75,VALID,0,VALID,94.2167,VALID,0,VALID,24.091,VALID,309,VALID,0.299609,
2009-04-22, 03:11:04,VALID,1002.75,VALID,0,VALID,94.2777,VALID,0,VALID,24.1123,VALID,309,VALID,0.249609,
2009-04-22, 03:12:04,VALID,1002.73,VALID,0,VALID,94.2777,VALID,0,VALID,24.091,VALID,309,VALID,0.231641,
2009-04-22, 03:13:04,VALID,1002.74,VALID,0,VALID,94.3311,VALID,0,VALID,24.091,VALID,309,VALID,0.178125,
2009-04-22, 03:14:04,VALID,1002.74,VALID,0,VALID,94.3082,VALID,0,VALID,24.1123,VALID,309,VALID,0.266797,
2009-04-22, 03:15:04,VALID,1002.74,VALID,0,VALID,94.3235,VALID,0,VALID,24.091,VALID,310,VALID,0.355859,
2009-04-22, 03:16:04,VALID,1002.76,VALID,0,VALID,94.3692,VALID,0,VALID,24.1123,VALID,310,VALID,0.388672,
2009-04-22, 03:17:04,VALID,1002.72,VALID,0,VALID,94.3998,VALID,0,VALID,24.13,VALID,310,VALID,0.394922,
2009-04-22, 03:18:04,VALID,1002.77,VALID,0,VALID,94.3998,VALID,0,VALID,24.1105,VALID,310,VALID,0.441406,
2009-04-22, 03:19:04,VALID,1002.74,VALID,0,VALID,94.3921,VALID,0,VALID,24.1105,VALID,318,VALID,0.461719,
2009-04-22, 03:20:04,VALID,1002.73,VALID,0,VALID,94.4074,VALID,0,VALID,24.13,VALID,339,VALID,0.404297,
2009-04-22, 03:21:04,VALID,1002.73,VALID,0,VALID,94.4455,VALID,0,VALID,24.1494,VALID,339,VALID,0.134375,
2009-04-22, 03:22:04,VALID,1002.74,VALID,0,VALID,94.4455,VALID,0,VALID,24.1902,VALID,339,VALID,0.217187,
2009-04-22, 03:23:04,VALID,1002.71,VALID,0,VALID,94.4455,VALID,0,VALID,24.1902,VALID,339,VALID,0.165625,
2009-04-22, 03:24:04,VALID,1002.73,VALID,0,VALID,94.4455,VALID,0,VALID,24.1884,VALID,339,VALID,0.36875,
2009-04-22, 03:25:04,VALID,1002.73,VALID,0,VALID,94.3692,VALID,0,VALID,24.1689,VALID,339,VALID,0.386719,
2009-04-22, 03:26:04,VALID,1002.76,VALID,0,VALID,94.3464,VALID,0,VALID,24.1707,VALID,339,VALID,0.446875,
2009-04-22, 03:27:04,VALID,1002.82,VALID,0,VALID,94.3692,VALID,0,VALID,24.1513,VALID,339,VALID,0.298438,
2009-04-22, 03:28:04,VALID,1002.87,VALID,0,VALID,94.3921,VALID,0,VALID,24.1707,VALID,340,VALID,0.276953,
2009-04-22, 03:29:04,VALID,1002.89,VALID,0,VALID,94.3921,VALID,0,VALID,24.2115,VALID,346,VALID,0.426562,
2009-04-22, 03:30:04,VALID,1002.89,VALID,0,VALID,94.3616,VALID,0,VALID,24.1707,VALID,346,VALID,0.296875,
2009-04-22, 03:31:04,VALID,1002.86,VALID,0,VALID,94.3311,VALID,0,VALID,24.1726,VALID,347,VALID,0.302734,
2009-04-22, 03:32:04,VALID,1002.88,VALID,0,VALID,94.3158,VALID,0,VALID,24.1726,VALID,346,VALID,0.225,
2009-04-22, 03:33:04,VALID,1002.88,VALID,0,VALID,94.3311,VALID,0,VALID,24.1318,VALID,347,VALID,0,
2009-04-22, 03:34:04,VALID,1002.89,VALID,0,VALID,94.3311,VALID,0,VALID,24.1318,VALID,346,VALID,0,
2009-04-22, 03:35:04,VALID,1002.88,VALID,0,VALID,94.3311,VALID,0,VALID,24.1318,VALID,346,VALID,0,
2009-04-22, 03:36:04,VALID,1002.9,VALID,0,VALID,94.3464,VALID,0,VALID,24.1318,VALID,346,VALID,0,
2009-04-22, 03:37:04,VALID,1002.87,VALID,0,VALID,94.3387,VALID,0,VALID,24.1318,VALID,346,VALID,0,
2009-04-22, 03:38:04,VALID,1002.88,VALID,0,VALID,94.3235,VALID,0,VALID,24.1105,VALID,346,VALID,0.0105469,
2009-04-22, 03:39:04,VALID,1002.88,VALID,0,VALID,94.354,VALID,0,VALID,24.1318,VALID,346,VALID,0.1875,
2009-04-22, 03:40:04,VALID,1002.87,VALID,0,VALID,94.3769,VALID,0,VALID,24.1318,VALID,346,VALID,0,
2009-04-22, 03:41:04,VALID,1002.88,VALID,0,VALID,94.354,VALID,0,VALID,24.1513,VALID,347,VALID,0,
2009-04-22, 03:42:04,VALID,1002.87,VALID,0,VALID,94.3692,VALID,0,VALID,24.1531,VALID,346,VALID,0,
2009-04-22, 03:43:04,VALID,1002.85,VALID,0,VALID,94.3769,VALID,0,VALID,24.1318,VALID,346,VALID,0,
2009-04-22, 03:44:04,VALID,1002.84,VALID,0,VALID,94.3998,VALID,0,VALID,24.1318,VALID,346,VALID,0,
2009-04-22, 03:45:04,VALID,1002.87,VALID,0,VALID,94.3769,VALID,0,VALID,24.1123,VALID,346,VALID,0.186328,